Starlink 4578

operational
NORAD ID: 53965 Int'l Des: 2022-125 Owner: SPXS Country: US Constellation: starlink
LEOCIRCULAR

Starlink 4578について

説明を読み込み中...

リアルタイム位置

3D地球を読み込み中...

次回通過

高度履歴

Altitude vs Time

uPlot chart will show altitude changes over time

軌道要素

1 53965U 22125B 25303.81473191 .00000345 00000-0 39776-4 0 9995
2 53965 53.2149 87.2769 0001345 85.9391 274.1755 15.08841053169711
Epoch: Oct 30, 2025 • Age: 19 hours

現在のステータス

高度 541.3 km
速度 7.60 km/s
衛星直下点 33.25°N, 149.61°W
打ち上げ日 Oct 5, 2022
運用期間 3 years
タイプ internet

技術仕様

分類 Payload
質量 305.00 kg
乾燥質量 290.00 kg
総質量 305.00 kg
長さ 0.20 m
直径 2.80 m
スパン 9.00 m
形状 Box + pan
製造者 SPXS
バスタイプ Starlink
フェーズステータス In Orbit
所有者/国 SPXS/US

大規模コンステレーション

Loading constellations...